User: anonymous   Login
Location: Unspecified
(0.0000°N, 0.0000°E)
Time: 07:25:34
(UTC+00:00)
Language:

Kosmos-2154 - Orbit

View from above orbital plane
View from above orbital plane
View from above satellite
View from above satellite

Ground track
Ground track

The orbit is defined by the following mean orbital elements,

1 21666U          26106.68170006 +.00000000 +00000-0 +53407-4 0 00000
2 21666  82.9071 155.0705 0025617  26.8574  92.3729 13.73534568    03
Epoch (UTC): 16 April 2026 16:21:38
Eccentricity: 0.0025617
inclination: 82.9071°
perigee height: 968 km
apogee height: 1006 km
right ascension of ascending node: 155.0705°
argument of perigee: 26.8574°
revolutions per day: 13.73534568
mean anomaly at epoch: 92.3729°

The dashed part of the orbit path shows where the satellite is in the earth's shadow,  

DLR